| time (UTC) | temp C | wind direction | speed KPH | gust KPH | rain 1hr cm | rain 24hr cm | rain mn cm | humidity % | barometer mb |
| 20260507221004 | 12 | 213 | 1.6 | 6.4 | 0.00 | 0.15 | 0.10 | 84 | 1009.5 |
| 20260507220503 | 12 | 255 | 1.6 | 6.4 | 0.00 | 0.15 | 0.10 | 85 | 1009.4 |
| 20260507220005 | 12 | 258 | 1.6 | 4.8 | 0.00 | 0.15 | 0.10 | 85 | 1009.5 |
| 20260507215504 | 12 | 266 | 1.6 | 4.8 | 0.00 | 0.15 | 0.10 | 85 | 1009.5 |
| 20260507215005 | 12 | 269 | 1.6 | 4.8 | 0.00 | 0.15 | 0.10 | 84 | 1009.5 |
| 20260507214511 | 12 | 248 | 0.0 | 4.8 | 0.00 | 0.15 | 0.10 | 85 | 1009.5 |
| 20260507214003 | 12 | 266 | 1.6 | 4.8 | 0.00 | 0.15 | 0.10 | 84 | 1009.5 |
| 20260507213503 | 12 | 256 | 0.0 | 6.4 | 0.00 | 0.15 | 0.10 | 83 | 1009.5 |
| 20260507213004 | 11 | 248 | 1.6 | 6.4 | 0.00 | 0.15 | 0.10 | 84 | 1009.5 |
| 20260507212502 | 11 | 217 | 3.2 | 4.8 | 0.00 | 0.15 | 0.10 | 83 | 1009.5 |
| 20260507212002 | 11 | 249 | 1.6 | 6.4 | 0.00 | 0.15 | 0.10 | 83 | 1009.6 |
| 20260507211505 | 12 | 243 | 3.2 | 6.4 | 0.00 | 0.15 | 0.10 | 82 | 1009.6 |
| 20260507211004 | 12 | 258 | 1.6 | 4.8 | 0.00 | 0.15 | 0.10 | 82 | 1009.6 |
| 20260507210502 | 11 | 231 | 1.6 | 4.8 | 0.00 | 0.15 | 0.10 | 82 | 1009.5 |
| 20260507210006 | 12 | 224 | 1.6 | 4.8 | 0.00 | 0.15 | 0.10 | 81 | 1009.5 |
| 20260507205502 | 12 | 276 | 3.2 | 4.8 | 0.00 | 0.15 | 0.10 | 80 | 1009.5 |
| 20260507205003 | 12 | 169 | 0.0 | 4.8 | 0.00 | 0.15 | 0.10 | 82 | 1009.5 |
| 20260507204505 | 11 | 233 | 0.0 | 4.8 | 0.00 | 0.15 | 0.10 | 81 | 1009.4 |
| 20260507204006 | 11 | 174 | 0.0 | 4.8 | 0.00 | 0.15 | 0.10 | 80 | 1009.4 |
| 20260507203507 | 11 | 212 | 3.2 | 8.0 | 0.00 | 0.15 | 0.10 | 79 | 1009.5 |
| 20260507203006 | 12 | 235 | 3.2 | 8.0 | 0.00 | 0.15 | 0.10 | 82 | 1009.6 |
| 20260507202502 | 12 | 191 | 0.0 | 6.4 | 0.00 | 0.15 | 0.10 | 82 | 1009.6 |
| 20260507202005 | 12 | 234 | 0.0 | 6.4 | 0.00 | 0.15 | 0.10 | 81 | 1009.7 |
| 20260507201512 | 12 | 201 | 3.2 | 6.4 | 0.00 | 0.15 | 0.10 | 81 | 1009.6 |
| 20260507201003 | 12 | 233 | 1.6 | 8.0 | 0.00 | 0.15 | 0.10 | 83 | 1009.5 |
| 20260507200503 | 12 | 178 | 1.6 | 8.0 | 0.00 | 0.15 | 0.10 | 84 | 1009.5 |
| 20260507200006 | 12 | 212 | 1.6 | 9.7 | 0.00 | 0.15 | 0.10 | 84 | 1009.8 |
| 20260507195503 | 12 | 186 | 4.8 | 9.7 | 0.00 | 0.15 | 0.10 | 82 | 1009.8 |
| 20260507195004 | 12 | 247 | 1.6 | 8.0 | 0.00 | 0.15 | 0.10 | 84 | 1009.9 |
| 20260507194506 | 12 | 214 | 1.6 | 8.0 | 0.03 | 0.15 | 0.10 | 83 | 1009.9 |
| 20260507194003 | 12 | 184 | 3.2 | 6.4 | 0.03 | 0.15 | 0.10 | 83 | 1009.9 |
| 20260507193503 | 12 | 238 | 1.6 | 6.4 | 0.03 | 0.15 | 0.10 | 84 | 1009.9 |
| 20260507193005 | 11 | 228 | 3.2 | 6.4 | 0.03 | 0.15 | 0.10 | 84 | 1009.9 |
| 20260507192505 | 11 | 167 | 3.2 | 6.4 | 0.03 | 0.15 | 0.10 | 84 | 1010.2 |
| 20260507192003 | 12 | 238 | 1.6 | 3.2 | 0.03 | 0.15 | 0.10 | 86 | 1010.3 |
| 20260507191509 | 12 | 52 | 0.0 | 3.2 | 0.03 | 0.15 | 0.10 | 85 | 1010.2 |
| 20260507191002 | 12 | 75 | 0.0 | 3.2 | 0.03 | 0.15 | 0.10 | 85 | 1010.1 |
| 20260507190506 | 12 | 189 | 0.0 | 3.2 | 0.03 | 0.15 | 0.10 | 84 | 1010.4 |
| 20260507190006 | 12 | 129 | 1.6 | 3.2 | 0.03 | 0.15 | 0.10 | 83 | 1010.3 |
| 20260507185504 | 12 | 52 | 0.0 | 3.2 | 0.03 | 0.15 | 0.10 | 86 | 1010.1 |
| 20260507185003 | 12 | 226 | 0.0 | 3.2 | 0.03 | 0.15 | 0.10 | 83 | 1010.3 |
| 20260507184506 | 12 | 237 | 0.0 | 3.2 | 0.00 | 0.13 | 0.08 | 83 | 1010.5 |
| 20260507184004 | 12 | 54 | 0.0 | 3.2 | 0.00 | 0.13 | 0.08 | 83 | 1010.6 |
| 20260507183505 | 12 | 59 | 1.6 | 3.2 | 0.00 | 0.13 | 0.08 | 82 | 1010.5 |
| 20260507183008 | 12 | 279 | 0.0 | 1.6 | 0.00 | 0.13 | 0.08 | 82 | 1010.4 |
| 20260507182503 | 12 | 288 | 0.0 | 1.6 | 0.00 | 0.13 | 0.08 | 83 | 1010.4 |
| 20260507182004 | 12 | 286 | 0.0 | 1.6 | 0.00 | 0.13 | 0.08 | 84 | 1010.4 |
| 20260507181507 | 11 | 286 | 0.0 | 3.2 | 0.00 | 0.13 | 0.08 | 83 | 1010.5 |
| 20260507181004 | 11 | 31 | 0.0 | 3.2 | 0.00 | 0.13 | 0.08 | 82 | 1010.4 |
| 20260507180504 | 11 | 66 | 1.6 | 3.2 | 0.00 | 0.13 | 0.08 | 82 | 1010.5 |
| 20260507180006 | 11 | 67 | 0.0 | 3.2 | 0.00 | 0.13 | 0.08 | 82 | 1010.4 |
| 20260507175508 | 11 | 141 | 0.0 | 4.8 | 0.00 | 0.13 | 0.08 | 82 | 1010.6 |
| 20260507175005 | 11 | 141 | 0.0 | 6.4 | 0.00 | 0.13 | 0.08 | 82 | 1010.7 |
| 20260507174514 | 11 | 60 | 0.0 | 6.4 | 0.00 | 0.13 | 0.08 | 82 | 1010.7 |
| 20260507174007 | 11 | 44 | 1.6 | 4.8 | 0.00 | 0.13 | 0.08 | 82 | 1010.8 |
| 20260507173507 | 11 | 34 | 1.6 | 4.8 | 0.00 | 0.13 | 0.08 | 83 | 1010.7 |
| 20260507173013 | 11 | 29 | 3.2 | 4.8 | 0.00 | 0.13 | 0.08 | 83 | 1010.7 |
| 20260507172504 | 11 | 57 | 1.6 | 4.8 | 0.00 | 0.13 | 0.08 | 84 | 1010.7 |
| 20260507172004 | 11 | 53 | 1.6 | 3.2 | 0.00 | 0.13 | 0.08 | 85 | 1010.8 |
| 20260507171509 | 11 | 85 | 0.0 | 3.2 | 0.00 | 0.13 | 0.08 | 84 | 1010.8 |
| 20260507171003 | 11 | 125 | 1.6 | 4.8 | 0.00 | 0.13 | 0.08 | 86 | 1010.9 |
| 20260507170503 | 11 | 129 | 1.6 | 4.8 | 0.00 | 0.13 | 0.08 | 86 | 1010.9 |
| 20260507170008 | 11 | 58 | 1.6 | 6.4 | 0.00 | 0.13 | 0.08 | 85 | 1011.0 |
| 20260507165508 | 11 | 80 | 0.0 | 6.4 | 0.00 | 0.13 | 0.08 | 87 | 1011.3 |
| 20260507165005 | 11 | 68 | 3.2 | 6.4 | 0.00 | 0.13 | 0.08 | 86 | 1011.2 |
| 20260507164507 | 11 | 97 | 0.0 | 6.4 | 0.00 | 0.13 | 0.08 | 87 | 1011.3 |
| 20260507164005 | 11 | 99 | 1.6 | 6.4 | 0.00 | 0.13 | 0.08 | 87 | 1011.4 |
| 20260507163505 | 11 | 82 | 1.6 | 4.8 | 0.00 | 0.13 | 0.08 | 88 | 1011.5 |
| 20260507163007 | 11 | 132 | 1.6 | 4.8 | 0.00 | 0.13 | 0.08 | 87 | 1011.6 |
| 20260507162503 | 11 | 160 | 0.0 | 11.3 | 0.00 | 0.13 | 0.08 | 87 | 1011.6 |
| 20260507162008 | 11 | 58 | 1.6 | 11.3 | 0.00 | 0.13 | 0.08 | 87 | 1011.7 |
| 20260507161511 | 11 | 49 | 1.6 | 8.0 | 0.03 | 0.13 | 0.08 | 87 | 1011.6 |
| 20260507161005 | 11 | 38 | 3.2 | 8.0 | 0.03 | 0.13 | 0.08 | 87 | 1011.7 |
| 20260507160504 | 11 | 34 | 3.2 | 8.0 | 0.03 | 0.13 | 0.08 | 87 | 1011.8 |
| 20260507160012 | 11 | 79 | 1.6 | 9.7 | 0.03 | 0.13 | 0.08 | 88 | 1011.7 |
| 20260507155504 | 11 | 18 | 3.2 | 9.7 | 0.03 | 0.13 | 0.08 | 89 | 1011.8 |
| 20260507155004 | 11 | 131 | 0.0 | 4.8 | 0.03 | 0.13 | 0.08 | 88 | 1011.9 |
| 20260507154514 | 11 | 129 | 0.0 | 6.4 | 0.03 | 0.13 | 0.08 | 88 | 1012.1 |
| 20260507154004 | 11 | 149 | 0.0 | 6.4 | 0.03 | 0.13 | 0.08 | 87 | 1012.1 |
| 20260507153505 | 11 | 50 | 3.2 | 6.4 | 0.03 | 0.13 | 0.08 | 87 | 1011.9 |
| 20260507153018 | 11 | 29 | 1.6 | 4.8 | 0.03 | 0.13 | 0.08 | 86 | 1012.1 |
| 20260507152503 | 11 | 72 | 1.6 | 4.8 | 0.03 | 0.13 | 0.08 | 85 | 1012.0 |
| 20260507152001 | 11 | 123 | 0.0 | 4.8 | 0.03 | 0.13 | 0.08 | 86 | 1012.1 |
| 20260507151511 | 11 | 49 | 0.0 | 4.8 | 0.00 | 0.10 | 0.05 | 85 | 1012.2 |
| 20260507151003 | 12 | 67 | 1.6 | 4.8 | 0.00 | 0.10 | 0.05 | 85 | 1011.9 |
| 20260507150503 | 12 | 39 | 1.6 | 4.8 | 0.00 | 0.10 | 0.05 | 86 | 1011.7 |
| 20260507150008 | 12 | 60 | 3.2 | 6.4 | 0.00 | 0.10 | 0.05 | 86 | 1011.7 |
| 20260507145507 | 11 | 89 | 3.2 | 6.4 | 0.00 | 0.10 | 0.05 | 85 | 1011.9 |
| 20260507145006 | 11 | 75 | 1.6 | 8.0 | 0.00 | 0.10 | 0.05 | 86 | 1011.8 |
| 20260507144514 | 11 | 48 | 3.2 | 8.0 | 0.00 | 0.10 | 0.05 | 86 | 1011.9 |
| 20260507144006 | 11 | 90 | 1.6 | 8.0 | 0.00 | 0.10 | 0.05 | 87 | 1011.9 |
| 20260507143503 | 11 | 54 | 3.2 | 9.7 | 0.00 | 0.10 | 0.05 | 86 | 1011.9 |
| 20260507143012 | 11 | 36 | 4.8 | 9.7 | 0.00 | 0.10 | 0.05 | 85 | 1012.0 |
| 20260507142506 | 11 | 24 | 4.8 | 9.7 | 0.00 | 0.10 | 0.05 | 85 | 1012.2 |
| 20260507142004 | 11 | 338 | 1.6 | 9.7 | 0.00 | 0.10 | 0.05 | 85 | 1012.2 |
| 20260507141512 | 11 | 40 | 4.8 | 9.7 | 0.00 | 0.10 | 0.05 | 85 | 1012.2 |
| 20260507141003 | 11 | 41 | 3.2 | 6.4 | 0.00 | 0.10 | 0.05 | 85 | 1012.2 |
| 20260507140503 | 11 | 62 | 0.0 | 9.7 | 0.00 | 0.10 | 0.05 | 86 | 1012.3 |
| 20260507140026 | 11 | 30 | 3.2 | 9.7 | 0.00 | 0.10 | 0.05 | 84 | 1012.2 |
| 20260507135504 | 11 | 46 | 3.2 | 11.3 | 0.00 | 0.10 | 0.05 | 85 | 1012.2 |
| 20260507135007 | 11 | 34 | 4.8 | 11.3 | 0.00 | 0.10 | 0.05 | 85 | 1012.3 |
| 20260507134512 | 11 | 33 | 4.8 | 8.0 | 0.00 | 0.10 | 0.05 | 85 | 1012.3 |
| 20260507134004 | 11 | 46 | 3.2 | 8.0 | 0.00 | 0.10 | 0.05 | 86 | 1012.4 |
| 20260507133504 | 11 | 71 | 3.2 | 6.4 | 0.00 | 0.13 | 0.05 | 85 | 1012.4 |
| 20260507133014 | 11 | 83 | 1.6 | 6.4 | 0.00 | 0.13 | 0.05 | 87 | 1012.3 |
| 20260507132504 | 11 | 61 | 3.2 | 6.4 | 0.00 | 0.13 | 0.05 | 86 | 1012.4 |
| 20260507132003 | 11 | 44 | 1.6 | 6.4 | 0.00 | 0.13 | 0.05 | 86 | 1012.4 |
| 20260507131517 | 11 | 51 | 3.2 | 4.8 | 0.00 | 0.13 | 0.05 | 87 | 1012.3 |
| 20260507131007 | 11 | 66 | 0.0 | 4.8 | 0.00 | 0.13 | 0.05 | 86 | 1012.3 |
| 20260507130507 | 11 | 26 | 1.6 | 4.8 | 0.00 | 0.13 | 0.05 | 86 | 1012.3 |
| 20260507130006 | 11 | 42 | 1.6 | 8.0 | 0.00 | 0.15 | 0.05 | 86 | 1012.1 |
| 20260507125506 | 11 | 53 | 3.2 | 8.0 | 0.00 | 0.15 | 0.05 | 86 | 1012.1 |
| 20260507125004 | 11 | 25 | 3.2 | 6.4 | 0.00 | 0.15 | 0.05 | 86 | 1012.0 |
| 20260507124507 | 11 | 75 | 3.2 | 6.4 | 0.00 | 0.15 | 0.05 | 86 | 1012.1 |
| 20260507124003 | 11 | 40 | 1.6 | 6.4 | 0.00 | 0.15 | 0.05 | 87 | 1012.0 |
| 20260507123507 | 11 | 66 | 3.2 | 6.4 | 0.00 | 0.15 | 0.05 | 87 | 1012.0 |
| 20260507123010 | 11 | 25 | 1.6 | 8.0 | 0.00 | 0.15 | 0.05 | 88 | 1012.0 |
| 20260507122513 | 11 | 58 | 4.8 | 8.0 | 0.00 | 0.15 | 0.05 | 87 | 1012.0 |
| 20260507122008 | 11 | 25 | 4.8 | 9.7 | 0.00 | 0.15 | 0.05 | 88 | 1012.0 |
| 20260507121516 | 11 | 41 | 3.2 | 9.7 | 0.00 | 0.15 | 0.05 | 88 | 1012.0 |
| 20260507121007 | 11 | 61 | 3.2 | 8.0 | 0.00 | 0.15 | 0.05 | 89 | 1012.0 |
| 20260507120509 | 11 | 86 | 1.6 | 8.0 | 0.00 | 0.15 | 0.05 | 89 | 1011.9 |
| 20260507120028 | 11 | 44 | 3.2 | 8.0 | 0.00 | 0.15 | 0.05 | 90 | 1011.8 |
| 20260507115504 | 11 | 64 | 3.2 | 4.8 | 0.00 | 0.15 | 0.05 | 90 | 1011.7 |
| 20260507115007 | 11 | 71 | 0.0 | 4.8 | 0.00 | 0.15 | 0.05 | 91 | 1011.9 |
| 20260507114516 | 11 | 75 | 1.6 | 4.8 | 0.00 | 0.15 | 0.05 | 90 | 1011.9 |
| 20260507114010 | 11 | 65 | 0.0 | 3.2 | 0.00 | 0.15 | 0.05 | 91 | 1011.7 |
| 20260507113506 | 11 | 68 | 0.0 | 4.8 | 0.00 | 0.15 | 0.05 | 91 | 1011.7 |
| 20260507113008 | 11 | 34 | 0.0 | 4.8 | 0.00 | 0.15 | 0.05 | 91 | 1011.5 |
| 20260507112506 | 11 | 30 | 1.6 | 3.2 | 0.00 | 0.15 | 0.05 | 91 | 1011.4 |
| 20260507112008 | 11 | 72 | 0.0 | 3.2 | 0.00 | 0.15 | 0.05 | 91 | 1011.4 |
| 20260507111515 | 11 | 79 | 0.0 | 3.2 | 0.00 | 0.15 | 0.05 | 90 | 1011.4 |
| 20260507111005 | 11 | 46 | 1.6 | 4.8 | 0.00 | 0.15 | 0.05 | 90 | 1011.4 |
| 20260507110506 | 11 | 39 | 1.6 | 4.8 | 0.00 | 0.15 | 0.05 | 90 | 1011.4 |
| 20260507110018 | 11 | 40 | 3.2 | 4.8 | 0.00 | 0.15 | 0.05 | 90 | 1011.2 |
| 20260507105506 | 11 | 75 | 1.6 | 4.8 | 0.00 | 0.15 | 0.05 | 90 | 1011.0 |
| 20260507105007 | 11 | 77 | 1.6 | 6.4 | 0.00 | 0.15 | 0.05 | 90 | 1011.1 |
| 20260507104520 | 11 | 59 | 1.6 | 6.4 | 0.00 | 0.15 | 0.05 | 90 | 1010.9 |
| 20260507104010 | 11 | 39 | 3.2 | 9.7 | 0.00 | 0.15 | 0.05 | 90 | 1010.7 |
| 20260507103506 | 11 | 86 | 1.6 | 9.7 | 0.00 | 0.15 | 0.05 | 90 | 1010.9 |
| 20260507103020 | 11 | 58 | 3.2 | 11.3 | 0.00 | 0.15 | 0.05 | 90 | 1010.7 |
| 20260507102504 | 12 | 80 | 1.6 | 11.3 | 0.00 | 0.15 | 0.05 | 90 | 1010.9 |
| 20260507102006 | 12 | 96 | 4.8 | 9.7 | 0.00 | 0.15 | 0.05 | 89 | 1010.9 |
| 20260507101520 | 12 | 51 | 3.2 | 12.9 | 0.00 | 0.15 | 0.05 | 89 | 1010.9 |
| 20260507101007 | 12 | 39 | 6.4 | 12.9 | 0.00 | 0.15 | 0.05 | 90 | 1011.0 |
| 20260507100503 | 12 | 49 | 3.2 | 6.4 | 0.00 | 0.15 | 0.05 | 91 | 1011.0 |
| 20260507100030 | 12 | 39 | 3.2 | 6.4 | 0.00 | 0.15 | 0.05 | 91 | 1010.8 |
| 20260507095506 | 12 | 46 | 3.2 | 6.4 | 0.00 | 0.15 | 0.05 | 91 | 1010.7 |
| 20260507095008 | 12 | 56 | 3.2 | 6.4 | 0.00 | 0.15 | 0.05 | 91 | 1011.0 |
| 20260507094522 | 12 | 30 | 3.2 | 8.0 | 0.00 | 0.15 | 0.05 | 91 | 1010.9 |
| 20260507094006 | 12 | 52 | 4.8 | 9.7 | 0.00 | 0.15 | 0.05 | 91 | 1010.8 |
| 20260507093507 | 12 | 77 | 3.2 | 9.7 | 0.00 | 0.15 | 0.05 | 91 | 1010.6 |
| 20260507093027 | 12 | 30 | 4.8 | 8.0 | 0.00 | 0.15 | 0.05 | 91 | 1010.4 |
| 20260507092511 | 12 | 95 | 1.6 | 8.0 | 0.00 | 0.15 | 0.05 | 92 | 1010.4 |
| 20260507092008 | 12 | 48 | 3.2 | 8.0 | 0.00 | 0.15 | 0.05 | 91 | 1010.6 |
| 20260507091521 | 12 | 51 | 0.0 | 8.0 | 0.00 | 0.15 | 0.05 | 91 | 1010.8 |
| 20260507091004 | 12 | 28 | 3.2 | 12.9 | 0.00 | 0.15 | 0.05 | 91 | 1010.6 |
| 20260507090505 | 12 | 57 | 6.4 | 12.9 | 0.00 | 0.15 | 0.05 | 91 | 1010.6 |
| 20260507090024 | 12 | 58 | 3.2 | 11.3 | 0.00 | 0.15 | 0.05 | 91 | 1010.4 |
| 20260507085504 | 13 | 115 | 4.8 | 11.3 | 0.00 | 0.15 | 0.05 | 91 | 1010.6 |
| 20260507085005 | 13 | 40 | 3.2 | 8.0 | 0.00 | 0.15 | 0.05 | 91 | 1010.6 |
| 20260507084539 | 13 | 32 | 3.2 | 11.3 | 0.00 | 0.15 | 0.05 | 91 | 1010.4 |
| 20260507084005 | 13 | 33 | 4.8 | 11.3 | 0.00 | 0.15 | 0.05 | 91 | 1010.3 |
| 20260507083508 | 13 | 27 | 6.4 | 11.3 | 0.00 | 0.15 | 0.05 | 91 | 1010.1 |
| 20260507083025 | 13 | 37 | 6.4 | 11.3 | 0.00 | 0.15 | 0.05 | 92 | 1010.1 |
| 20260507082509 | 13 | 350 | 3.2 | 11.3 | 0.00 | 0.15 | 0.05 | 92 | 1010.3 |
| 20260507082006 | 13 | 47 | 6.4 | 11.3 | 0.00 | 0.15 | 0.05 | 92 | 1010.2 |
| 20260507081522 | 13 | 30 | 4.8 | 11.3 | 0.00 | 0.15 | 0.05 | 92 | 1010.1 |
| 20260507081012 | 13 | 34 | 4.8 | 11.3 | 0.00 | 0.15 | 0.05 | 92 | 1010.2 |
| 20260507080507 | 14 | 77 | 6.4 | 12.9 | 0.00 | 0.15 | 0.05 | 92 | 1010.1 |
| 20260507080022 | 14 | 23 | 8.0 | 12.9 | 0.00 | 0.15 | 0.05 | 92 | 1010.1 |
| 20260507075503 | 14 | 58 | 8.0 | 12.9 | 0.00 | 0.15 | 0.05 | 91 | 1010.1 |
| 20260507075008 | 15 | 34 | 6.4 | 12.9 | 0.00 | 0.15 | 0.05 | 91 | 1009.8 |
| 20260507074516 | 15 | 52 | 4.8 | 9.7 | 0.00 | 0.15 | 0.05 | 91 | 1009.9 |
| 20260507074004 | 16 | 28 | 4.8 | 9.7 | 0.00 | 0.15 | 0.05 | 91 | 1009.9 |
| 20260507073505 | 16 | 72 | 4.8 | 9.7 | 0.00 | 0.15 | 0.05 | 92 | 1009.7 |
| 20260507073025 | 16 | 80 | 1.6 | 9.7 | 0.00 | 0.15 | 0.05 | 92 | 1009.8 |
| 20260507072509 | 16 | 49 | 4.8 | 9.7 | 0.00 | 0.15 | 0.05 | 91 | 1009.3 |
| 20260507072006 | 17 | 46 | 0.0 | 11.3 | 0.00 | 0.15 | 0.05 | 89 | 1009.3 |
| 20260507071524 | 17 | 20 | 8.0 | 11.3 | 0.00 | 0.15 | 0.05 | 87 | 1008.9 |
| 20260507071008 | 18 | 359 | 1.6 | 11.3 | 0.00 | 0.15 | 0.05 | 80 | 1009.2 |
| 20260507070510 | 17 | 262 | 4.8 | 11.3 | 0.00 | 0.15 | 0.05 | 76 | 1009.0 |
| 20260507070026 | 17 | 231 | 4.8 | 9.7 | 0.00 | 0.15 | 0.05 | 78 | 1008.9 |
| 20260507065511 | 17 | 277 | 4.8 | 9.7 | 0.00 | 0.15 | 0.05 | 83 | 1008.9 |
| 20260507065006 | 17 | 338 | 0.0 | 4.8 | 0.00 | 0.15 | 0.05 | 86 | 1008.8 |
| 20260507064526 | 17 | 270 | 1.6 | 4.8 | 0.00 | 0.15 | 0.05 | 85 | 1008.8 |
| 20260507064010 | 17 | 330 | 3.2 | 6.4 | 0.00 | 0.15 | 0.05 | 86 | 1008.8 |
| 20260507063506 | 17 | 274 | 3.2 | 6.4 | 0.00 | 0.15 | 0.05 | 88 | 1008.9 |
| 20260507063017 | 17 | 243 | 3.2 | 4.8 | 0.00 | 0.15 | 0.05 | 89 | 1009.1 |
| 20260507062505 | 17 | 248 | 1.6 | 3.2 | 0.00 | 0.15 | 0.05 | 91 | 1009.2 |
| 20260507062010 | 17 | 237 | 1.6 | 6.4 | 0.00 | 0.15 | 0.05 | 92 | 1009.4 |
| 20260507061530 | 17 | 252 | 1.6 | 6.4 | 0.00 | 0.15 | 0.05 | 93 | 1009.3 |
| 20260507061010 | 16 | 268 | 3.2 | 8.0 | 0.00 | 0.15 | 0.05 | 93 | 1009.3 |
| 20260507060507 | 16 | 195 | 4.8 | 8.0 | 0.00 | 0.15 | 0.05 | 94 | 1009.1 |
| 20260507060035 | 16 | 250 | 1.6 | 3.2 | 0.00 | 0.15 | 0.05 | 94 | 1009.4 |
| 20260507055508 | 16 | 124 | 0.0 | 1.6 | 0.00 | 0.15 | 0.05 | 94 | 1009.3 |
| 20260507055010 | 16 | 119 | 0.0 | 3.2 | 0.00 | 0.15 | 0.05 | 94 | 1009.4 |
| 20260507054535 | 16 | 356 | 0.0 | 3.2 | 0.00 | 0.15 | 0.05 | 94 | 1009.4 |
| 20260507054010 | 16 | 349 | 0.0 | 3.2 | 0.00 | 0.15 | 0.05 | 94 | 1009.5 |
| 20260507053517 | 16 | 347 | 0.0 | 3.2 | 0.03 | 0.15 | 0.05 | 94 | 1009.3 |
| 20260507053023 | 16 | 37 | 0.0 | 0.0 | 0.03 | 0.15 | 0.05 | 94 | 1009.2 |
| 20260507052511 | 17 | 37 | 0.0 | 1.6 | 0.03 | 0.15 | 0.05 | 94 | 1009.0 |
| 20260507052007 | 17 | 37 | 0.0 | 1.6 | 0.05 | 0.15 | 0.05 | 94 | 1008.9 |
| 20260507051520 | 17 | 314 | 0.0 | 0.0 | 0.05 | 0.15 | 0.05 | 93 | 1008.7 |
| 20260507051009 | 17 | 278 | 0.0 | 0.0 | 0.05 | 0.15 | 0.05 | 93 | 1008.3 |
| 20260507050505 | 17 | 334 | 0.0 | 0.0 | 0.05 | 0.15 | 0.05 | 93 | 1008.1 |
| 20260507050047 | 17 | 335 | 0.0 | 0.0 | 0.05 | 0.15 | 0.05 | 93 | 1008.0 |
| 20260507045508 | 17 | 335 | 0.0 | 0.0 | 0.05 | 0.15 | 0.05 | 93 | 1008.1 |
| 20260507045007 | 17 | 335 | 0.0 | 0.0 | 0.05 | 0.15 | 0.05 | 92 | 1008.3 |
| 20260507044531 | 17 | 335 | 0.0 | 0.0 | 0.08 | 0.15 | 0.05 | 92 | 1008.5 |
| 20260507044011 | 17 | 255 | 0.0 | 1.6 | 0.08 | 0.15 | 0.05 | 92 | 1008.9 |
| 20260507043510 | 17 | 253 | 0.0 | 3.2 | 0.05 | 0.13 | 0.03 | 92 | 1009.0 |
| 20260507043025 | 17 | 299 | 1.6 | 3.2 | 0.05 | 0.13 | 0.03 | 91 | 1009.2 |
| 20260507042509 | 17 | 257 | 0.0 | 4.8 | 0.05 | 0.13 | 0.03 | 91 | 1009.0 |
| 20260507042014 | 17 | 274 | 0.0 | 4.8 | 0.05 | 0.10 | 0.00 | 91 | 1009.1 |
| 20260507041517 | 17 | 276 | 0.0 | 3.2 | 0.05 | 0.10 | 0.00 | 92 | 1009.3 |
| 20260507041007 | 17 | 263 | 1.6 | 3.2 | 0.05 | 0.10 | 0.00 | 92 | 1009.2 |
| 20260507040509 | 17 | 250 | 1.6 | 3.2 | 0.05 | 0.10 | 0.00 | 91 | 1009.0 |
| 20260507040025 | 17 | 297 | 0.0 | 1.6 | 0.05 | 0.10 | 0.00 | 90 | 1009.0 |
| 20260507035509 | 17 | 297 | 0.0 | 3.2 | 0.05 | 0.10 | 0.10 | 90 | 1009.1 |
| 20260507035003 | 17 | 275 | 1.6 | 4.8 | 0.05 | 0.10 | 0.10 | 89 | 1009.0 |
| 20260507034507 | 17 | 269 | 0.0 | 4.8 | 0.03 | 0.08 | 0.08 | 89 | 1008.9 |
| 20260507034008 | 17 | 257 | 1.6 | 4.8 | 0.03 | 0.08 | 0.08 | 89 | 1009.2 |
| 20260507033503 | 17 | 263 | 3.2 | 8.0 | 0.03 | 0.08 | 0.08 | 88 | 1009.5 |
| 20260507033008 | 18 | 261 | 3.2 | 9.7 | 0.03 | 0.08 | 0.08 | 88 | 1009.7 |
| 20260507032504 | 18 | 290 | 3.2 | 9.7 | 0.03 | 0.08 | 0.08 | 87 | 1009.7 |
| 20260507032003 | 18 | 239 | 6.4 | 9.7 | 0.00 | 0.05 | 0.05 | 86 | 1009.5 |
| 20260507031514 | 18 | 255 | 6.4 | 9.7 | 0.00 | 0.05 | 0.05 | 86 | 1009.6 |
| 20260507031007 | 18 | 264 | 1.6 | 8.0 | 0.00 | 0.05 | 0.05 | 86 | 1009.6 |
| 20260507030508 | 18 | 310 | 3.2 | 8.0 | 0.00 | 0.05 | 0.05 | 85 | 1009.5 |
| 20260507030016 | 18 | 245 | 4.8 | 8.0 | 0.00 | 0.05 | 0.05 | 84 | 1009.2 |
| 20260507025509 | 18 | 257 | 3.2 | 9.7 | 0.00 | 0.05 | 0.05 | 84 | 1009.3 |
| 20260507025012 | 18 | 255 | 6.4 | 9.7 | 0.00 | 0.05 | 0.05 | 84 | 1009.2 |
| 20260507024520 | 18 | 250 | 4.8 | 9.7 | 0.00 | 0.05 | 0.05 | 83 | 1009.1 |
| 20260507024012 | 18 | 278 | 3.2 | 9.7 | 0.00 | 0.05 | 0.05 | 83 | 1009.1 |
| 20260507023509 | 18 | 229 | 4.8 | 8.0 | 0.00 | 0.05 | 0.05 | 84 | 1009.3 |
| 20260507023005 | 18 | 279 | 4.8 | 8.0 | 0.00 | 0.05 | 0.05 | 84 | 1009.4 |
| 20260507022505 | 18 | 282 | 3.2 | 9.7 | 0.00 | 0.05 | 0.05 | 84 | 1009.3 |
| 20260507022005 | 18 | 261 | 3.2 | 9.7 | 0.00 | 0.05 | 0.05 | 84 | 1009.3 |
| 20260507021518 | 18 | 271 | 3.2 | 9.7 | 0.00 | 0.05 | 0.05 | 84 | 1009.3 |
| 20260507021004 | 18 | 266 | 4.8 | 6.4 | 0.00 | 0.05 | 0.05 | 85 | 1009.0 |
| 20260507020504 | 18 | 263 | 3.2 | 8.0 | 0.00 | 0.05 | 0.05 | 85 | 1009.0 |
| 20260507020021 | 18 | 270 | 4.8 | 8.0 | 0.00 | 0.05 | 0.05 | 85 | 1008.9 |
| 20260507015506 | 18 | 289 | 3.2 | 6.4 | 0.00 | 0.05 | 0.05 | 85 | 1008.6 |
| 20260507015007 | 17 | 266 | 3.2 | 6.4 | 0.00 | 0.05 | 0.05 | 85 | 1008.7 |
| 20260507014528 | 17 | 270 | 3.2 | 4.8 | 0.00 | 0.05 | 0.05 | 85 | 1008.8 |
| 20260507014010 | 18 | 236 | 1.6 | 4.8 | 0.00 | 0.05 | 0.05 | 85 | 1008.9 |
| 20260507013511 | 18 | 262 | 3.2 | 4.8 | 0.00 | 0.05 | 0.05 | 85 | 1009.0 |
| 20260507013023 | 18 | 255 | 3.2 | 4.8 | 0.00 | 0.05 | 0.05 | 84 | 1009.0 |
| 20260507012506 | 18 | 265 | 3.2 | 4.8 | 0.00 | 0.05 | 0.05 | 84 | 1009.2 |
| 20260507012013 | 18 | 261 | 1.6 | 4.8 | 0.00 | 0.05 | 0.05 | 84 | 1009.0 |
| 20260507011515 | 18 | 262 | 3.2 | 4.8 | 0.00 | 0.05 | 0.05 | 83 | 1009.0 |
| 20260507011004 | 18 | 255 | 1.6 | 6.4 | 0.00 | 0.05 | 0.05 | 83 | 1009.0 |
| 20260507010506 | 18 | 277 | 3.2 | 6.4 | 0.00 | 0.05 | 0.05 | 83 | 1009.3 |
| 20260507010026 | 18 | 260 | 1.6 | 4.8 | 0.00 | 0.05 | 0.05 | 83 | 1009.3 |
| 20260507005504 | 18 | 258 | 3.2 | 6.4 | 0.00 | 0.05 | 0.05 | 83 | 1009.5 |
| 20260507005007 | 18 | 244 | 1.6 | 6.4 | 0.00 | 0.05 | 0.05 | 82 | 1009.3 |
| 20260507004526 | 18 | 267 | 3.2 | 6.4 | 0.00 | 0.05 | 0.05 | 82 | 1009.3 |
| 20260507004011 | 18 | 261 | 3.2 | 8.0 | 0.00 | 0.05 | 0.05 | 82 | 1009.2 |
| 20260507003511 | 18 | 266 | 3.2 | 8.0 | 0.00 | 0.05 | 0.05 | 82 | 1009.2 |
| 20260507003022 | 18 | 272 | 4.8 | 8.0 | 0.00 | 0.05 | 0.05 | 82 | 1009.2 |
| 20260507002507 | 18 | 269 | 4.8 | 9.7 | 0.00 | 0.05 | 0.05 | 81 | 1009.2 |
| 20260507002010 | 18 | 219 | 4.8 | 9.7 | 0.00 | 0.05 | 0.05 | 81 | 1009.0 |
| 20260507001522 | 18 | 271 | 4.8 | 9.7 | 0.00 | 0.05 | 0.05 | 81 | 1009.2 |
| 20260507001008 | 19 | 258 | 4.8 | 9.7 | 0.00 | 0.05 | 0.05 | 81 | 1009.3 |
| 20260507000513 | 19 | 266 | 3.2 | 9.7 | 0.00 | 0.05 | 0.05 | 81 | 1009.2 |
| 20260507000010 | 19 | 275 | 4.8 | 9.7 | 0.00 | 0.05 | 0.05 | 80 | 1009.2 |
| 20260506235504 | 19 | 253 | 4.8 | 11.3 | 0.00 | 0.05 | 0.05 | 80 | 1009.1 |
| 20260506235007 | 19 | 233 | 4.8 | 11.3 | 0.00 | 0.05 | 0.05 | 80 | 1009.0 |
| 20260506234514 | 19 | 271 | 6.4 | 11.3 | 0.00 | 0.05 | 0.05 | 80 | 1009.1 |
| 20260506234007 | 19 | 270 | 4.8 | 11.3 | 0.00 | 0.05 | 0.05 | 79 | 1008.7 |
| 20260506233508 | 19 | 249 | 4.8 | 12.9 | 0.00 | 0.05 | 0.05 | 79 | 1008.4 |
| 20260506233018 | 20 | 236 | 4.8 | 12.9 | 0.00 | 0.05 | 0.05 | 79 | 1008.7 |
| 20260506232507 | 20 | 237 | 8.0 | 12.9 | 0.00 | 0.05 | 0.05 | 79 | 1008.9 |
| 20260506232008 | 20 | 243 | 8.0 | 12.9 | 0.00 | 0.05 | 0.05 | 79 | 1009.1 |
| 20260506231526 | 20 | 229 | 6.4 | 17.7 | 0.00 | 0.05 | 0.05 | 78 | 1009.1 |
| 20260506231007 | 20 | 249 | 9.7 | 17.7 | 0.00 | 0.05 | 0.05 | 78 | 1009.0 |
| 20260506230506 | 20 | 230 | 9.7 | 17.7 | 0.00 | 0.05 | 0.05 | 78 | 1009.0 |
| 20260506230026 | 20 | 266 | 8.0 | 16.1 | 0.00 | 0.05 | 0.05 | 77 | 1008.9 |
| 20260506225513 | 20 | 263 | 8.0 | 16.1 | 0.00 | 0.05 | 0.05 | 77 | 1008.8 |
| 20260506225008 | 20 | 248 | 6.4 | 14.5 | 0.00 | 0.05 | 0.05 | 76 | 1008.7 |
| 20260506224513 | 20 | 238 | 6.4 | 12.9 | 0.00 | 0.05 | 0.05 | 76 | 1008.8 |
| 20260506224006 | 21 | 273 | 4.8 | 19.3 | 0.00 | 0.05 | 0.05 | 75 | 1008.6 |
| 20260506223511 | 21 | 277 | 9.7 | 19.3 | 0.00 | 0.05 | 0.05 | 75 | 1008.2 |
| 20260506223018 | 21 | 266 | 9.7 | 17.7 | 0.00 | 0.05 | 0.05 | 75 | 1008.3 |
| 20260506222506 | 21 | 252 | 11.3 | 16.1 | 0.00 | 0.05 | 0.05 | 74 | 1008.5 |
| 20260506222013 | 21 | 234 | 8.0 | 16.1 | 0.00 | 0.05 | 0.05 | 75 | 1008.3 |
| 20260506221522 | 20 | 248 | 6.4 | 16.1 | 0.00 | 0.05 | 0.05 | 76 | 1008.2 |